Terminal Aerodrome Forecast
Issued by NWS Denver/Boulder, CO

Home | Current Version | Previous Version | Text Only | Print | Product List | Glossary On
Versions: 1 2 3 4 5 6 7 8 9 10 11 12 13 14 15 16 17 18 19 20 21 22 23 24 25 26 27 28 29 30 31 32 33 34 35 36 37 38 39 40 41 42 43 44 45 46 47 48 49 50
000
FTUS45 KBOU 250417 AAC
TAFDEN
TAF AMD
KDEN 250417Z 2504/2606 35009KT P6SM SCT090 BKN200
     FM250530 03011KT P6SM BKN090
     FM250800 15009KT P6SM SCT090 SCT220
     FM251100 21010KT P6SM FEW220
     FM251800 31010KT P6SM FEW120 SCT220
     FM260200 22009KT P6SM FEW220=

USA.gov is the U.S. government's official web portal to all federal, state and local government web resources and services.